{"data":{"norad_id":52184,"epoch":"2026-05-25T04:51:56.617632Z","epoch_age_seconds":60729,"freshness":"FRESH","line1":"1 52184U 22033AD  26145.20273863  .00014913  00000+0  35951-3 0  9992","line2":"2 52184  97.2350 224.4763 0004557 340.5117  19.5955 15.41319872101162","mean_motion":15.41319872,"eccentricity":0.0004557,"inclination_deg":97.235,"raan_deg":224.4763,"arg_perigee_deg":340.5117,"mean_anomaly_deg":19.5955,"bstar":0.00035951,"rev_number":10116,"period_min":93.426421481965,"perigee_km":439.10487608802,"apogee_km":445.32094299558,"semimajor_km":6820.3499095418,"source":"CELESTRAK","updated_at":"2026-05-25T13:37:57.650209Z"}}